"Pseudo-MPEC" for ZTF10F2

Created 2026 Jul 24 18:35:19 UT using Find_Orb

Click here for an explanation of pseudo-MPECs

 
 Astrometry: 
     ZTF10F2*0C2026 07 24.33602521 25 43.867+28 11 27.35   ~7OIZ 18.83gUNEOCPI41
     ZTF10F2 0C2026 07 24.33637221 25 44.608+28 11 29.76   ~7OIZ 18.83gUNEOCPI41
     ZTF10F2 0C2026 07 24.39487821 27 59.627+28 18 11.81   ~7OIZ 18.52RUNEOCPI41
     ZTF10F2 0C2026 07 24.39522521 28 00.368+28 18 14.12   ~7OIZ 18.52RUNEOCPI41

Station data:
(I41) Palomar Mountain--ZTF  (N33.357336 W116.859780)  US/California.
   Observers B. T. Bolin, Z. T. F. Collaboration. Measurers B. T. Bolin,
   Z.-Y. Lin, F. J. Masci. 1.2-m f/2.4 Schmidt.

Orbital elements:  ZTF10F2
   Perihelion 2026 Sep 2.641554 +/- 28 TT = 15:23:50.2 (JD 2461286.141554)
Epoch 2026 Jul 24.0 TT = JDT 2461245.5   Earth MOID: 0.0007   Ma: 0.0800
M 359.943228512 +/- 27              (J2000 ecliptic)             AutoNEOCP
n   0.001396882 +/-                 Peri.  260.140682 +/- 57
a  79.25549826 +/-                  Node   122.248972 +/- 60
e   0.99248218 +/- 0.252            Incl.   53.714510 +/- 15
P 705.57649                H 25.04  G  0.15   U 10.8  SR
q 0.595828565 +/- 0.169    Q 157.9151679 +/- 31.1
From 4 observations 2026 July 24 (85.2 min); mean residual 0".36
Residuals in arcseconds: 
260724 I41  .09+  .04-    260724 I41  .72+  .06+    
260724 I41  .10-  .04+    260724 I41  .71-  .06-    

Ephemerides (geocentric):
Date (UTC) HH   RA             Dec           delta  r     elong  mag " sig PA
---- --------  ------------   ------------  ------ ------ -----  --- --------
2026 07 24 19  21 57 10.601   +29 25 46.53  .01290 1.0232 125.0 17.6  26d  78
2026 07 24 20  22 02 42.861   +29 35 40.92  .01201 1.0225 124.2 17.5  32d  74
2026 07 24 21  22 09 09.284   +29 46 04.83  .01113 1.0219 123.4 17.4  36d  73
2026 07 24 22  22 16 43.502   +29 56 45.92  .01026 1.0213 122.3 17.2  39d  72
2026 07 24 23  22 25 43.762   +30 07 19.08  .00939 1.0206 121.1 17.1  41d  71
2026 07 25 00  22 36 34.818   +30 16 56.03  .00854 1.0200 119.6 16.9  43d  71
2026 07 25 01  22 49 50.600   +30 24 06.00  .00771 1.0193 117.7 16.7  44d  71
2026 07 25 02  23 06 17.807   +30 25 59.66  .00690 1.0187 115.3 16.6  46d  71
2026 07 25 03  23 27 00.043   +30 17 22.58  915595 1.0180 112.2 16.4  47d  71
2026 07 25 04  23 53 20.357   +29 48 37.81  806591 1.0174 108.1 16.2  48d  71
2026 07 25 05  00 26 55.109   +28 42 48.45  708038 1.0167 102.6 16.1  50d  71
2026 07 25 06  01 09 02.711   +26 33 07.09  624903 1.0161  95.4 16.1  52d  71
2026 07 25 07  01 59 28.431   +22 47 32.86  564045 1.0155  86.3 16.3  54d  71
2026 07 25 08  02 54 54.924   +17 12 06.95  533146 1.0148  75.7 16.7  59d  72
2026 07 25 09  03 49 26.157   +10 22 51.03  537398 1.0142  65.0 17.3  62d  72
2026 07 25 10  04 37 38.100   +03 34 57.09  576021 1.0135  55.9 18??  63d  72
2026 07 25 11  05 17 12.132   -02 12 54.45  642847 1.0129  49.4 19??  64d  72
2026 07 25 12  05 48 30.821   -06 44 21.18  730171 1.0122  45.3 19??  64d  72
2026 07 25 13  06 13 03.383   -10 08 55.07  831560 1.0116  42.8 20??  64d  71
2026 07 25 14  06 32 23.963   -12 42 34.95  942484 1.0110  41.5 20??  63d  71
2026 07 25 15  06 47 49.972   -14 39 22.70  .00709 1.0103  40.9 21??  63d  71
2026 07 25 16  07 00 19.682   -16 09 43.24  .00790 1.0097  40.6 21??  63d  71
2026 07 25 17  07 10 35.654   -17 20 55.64  .00874 1.0090  40.6 21??  63d  70
2026 07 25 18  07 19 08.821   -18 18 04.61  .00959 1.0084  40.6 21??  63d  70
2026 07 25 19  07 26 21.809   -19 04 42.89  .01046 1.0077  40.8 21??  63d  70
2026 07 25 20  07 32 31.360   -19 43 20.99  .01134 1.0071  40.9 22??  63d  70
2026 07 25 21  07 37 50.029   -20 15 47.22  .01222 1.0065  41.1 22??  62d  70
2026 07 25 22  07 42 27.368   -20 43 20.82  .01311 1.0058  41.3 22??  62d  70
2026 07 25 23  07 46 30.738   -21 07 00.79  .01400 1.0052  41.5 22??  62d  70
2026 07 26 00  07 50 05.894   -21 27 31.73  .01490 1.0045  41.7 22??  62d  70
2026 07 26 01  07 53 17.383   -21 45 27.87  .01580 1.0039  41.8 22??  62d  70
2026 07 26 02  07 56 08.844   -22 01 15.86  .01671 1.0033  42.0 22??  62d  69
2026 07 26 03  07 58 43.215   -22 15 16.71  .01762 1.0026  42.1 22??  62d  69
2026 07 26 04  08 01 02.898   -22 27 47.14  .01852 1.0020  42.3 22??  62d  69
2026 07 26 05  08 03 09.868   -22 39 00.65  .01943 1.0013  42.4 22??  62d  69
2026 07 26 06  08 05 05.765   -22 49 08.23  .02035 1.0007  42.5 23??  62d  69
2026 07 26 07  08 06 51.964   -22 58 18.89  .02126 1.0001  42.6 23??  62d  69
2026 07 26 08  08 08 29.621   -23 06 40.11  .02217 0.9994  42.7 23??  62d  69
2026 07 26 09  08 09 59.718   -23 14 18.11  .02309 0.9988  42.8 23??  62d  69
2026 07 26 10  08 11 23.093   -23 21 18.16  .02401 0.9981  42.9 23??  62d  69
2026 07 26 11  08 12 40.466   -23 27 44.67  .02492 0.9975  43.0 23??  62d  69
2026 07 26 12  08 13 52.458   -23 33 41.44  .02584 0.9968  43.1 23??  62d  69
2026 07 26 13  08 14 59.607   -23 39 11.70  .02676 0.9962  43.1 23??  62d  69
2026 07 26 14  08 16 02.384   -23 44 18.24  .02768 0.9956  43.2 23??  62d  69
2026 07 26 15  08 17 01.199   -23 49 03.47  .02860 0.9949  43.3 23??  62d  68
2026 07 26 16  08 17 56.414   -23 53 29.50  .02952 0.9943  43.3 23??  62d  68
2026 07 26 17  08 18 48.347   -23 57 38.16  .03044 0.9936  43.4 23??  62d  68
2026 07 26 18  08 19 37.282   -24 01 31.05  .03136 0.9930  43.4 23??  62d  68